Terminal Aerodrome Forecast
Issued by NWS Greer, SC

Home | Current Version | Previous Version | Text Only | Print | Product List | Glossary On
Versions: 1 2 3 4 5 6 7 8 9 10 11 12 13 14 15 16 17 18 19 20 21 22 23 24 25 26 27 28 29 30 31 32 33 34 35 36 37 38 39 40 41 42 43 44 45 46 47 48 49
000
FTUS42 KGSP 252057 AAB
TAFCLT
TAF AMD
KCLT 252057Z 2521/2618 35003KT 4SM -DZ BR OVC015
      TEMPO 2521/2524 2SM -RADZ SCT004 OVC009
     FM260000 20005KT P6SM BKN040 WS020/24025KT
     FM260800 23003KT P6SM BKN022
     FM261300 34006KT P6SM BKN023=

USA.gov is the U.S. government's official web portal to all federal, state and local government web resources and services.